GFSSW_700_rhum_276.txt.gz
RH
23 20 19 17 16 15 14 13 12 11 11 10 10 10 9 10 11 12 13 13 14 15 16 15 13 12 12 13 14 11 14 19 28 28 30 27 25 28 26 26 28 26 37 36 35
22 21 19 18 16 14 14 13 12 11 11 10 10 10 10 9 8 8 8 10 12 14 15 16 17 15 13 12 12 19 20 18 20 24 28 28 27 25 24 27 29 31 31 30 27
22 21 20 18 16 15 14 13 13 12 12 12 11 11 11 10 10 10 10 9 9 12 17 18 18 17 18 15 14 15 22 29 26 20 15 14 24 29 23 26 28 28 25 25 24
20 19 19 18 16 15 14 14 13 12 11 11 10 10 10 11 17 12 12 11 11 11 14 13 10 12 17 22 17 18 24 16 26 19 18 18 22 20 24 25 28 24 21 22 22
18 16 15 14 13 12 11 10 9 8 6 5 4 4 4 5 6 7 8 10 12 14 13 13 13 12 15 14 14 17 20 15 19 17 19 17 16 19 20 23 22 24 27 22 17
14 13 11 9 9 8 7 6 5 5 5 6 6 6 7 8 9 9 8 6 6 7 8 11 14 14 13 13 12 17 11 10 20 19 12 13 22 16 22 19 20 23 26 26 24
11 10 10 10 9 8 8 7 7 7 9 16 18 15 10 14 12 12 13 15 14 14 10 7 7 9 11 18 17 16 18 23 17 24 23 19 18 22 25 17 15 18 21 26 26
9 10 12 13 13 12 10 9 10 14 17 27 28 27 25 25 24 20 21 22 23 25 22 18 15 12 9 10 19 25 20 18 16 23 23 26 19 24 26 21 11 10 15 19 22
12 17 21 21 18 14 16 18 21 23 27 29 28 27 24 25 27 28 27 27 27 27 25 22 19 20 18 24 21 18 18 19 23 24 26 28 26 25 33 28 27 24 14 23 23
18 29 29 25 28 26 31 31 30 30 30 30 28 24 24 26 28 31 30 28 30 30 27 28 29 30 30 28 25 26 27 28 28 29 33 33 29 28 30 32 30 28 28 27 30
25 34 42 32 42 41 38 35 33 34 31 29 25 22 23 19 14 12 16 17 23 31 36 37 34 32 34 36 39 38 37 36 35 36 40 37 34 32 32 32 33 35 30 37 29
49 46 47 45 45 42 41 38 36 34 30 26 18 14 18 15 9 6 6 10 20 36 36 34 31 35 38 40 42 40 38 36 36 37 40 36 33 30 29 29 31 37 48 34 27
46 49 49 45 42 41 40 37 37 37 25 14 10 8 8 8 8 8 8 8 10 25 31 37 30 38 40 38 37 33 37 37 37 35 34 29 29 22 23 28 38 44 42 39 36
61 53 43 54 42 39 25 21 24 16 11 10 12 12 14 13 18 22 23 22 24 27 19 29 20 29 38 35 35 37 38 45 42 39 29 28 26 23 20 38 56 58 43 42 40
57 53 38 43 33 22 12 10 7 6 25 14 17 14 16 21 22 24 29 29 34 31 25 44 48 46 40 52 42 37 51 44 38 33 30 23 23 18 26 50 64 57 50 50 48
60 46 34 33 17 7 7 6 6 9 20 14 16 20 24 28 32 31 30 26 31 30 31 37 31 30 30 29 34 48 40 34 28 30 28 33 36 22 39 61 56 55 53 49 46
58 43 34 25 6 7 7 6 10 22 9 17 19 20 22 29 29 29 29 27 29 28 30 29 33 42 35 45 48 39 29 20 15 21 19 25 27 20 35 56 54 58 55 54 57
56 36 22 8 8 7 6 5 17 9 11 13 14 19 22 21 21 21 20 29 20 20 24 24 26 44 41 36 39 27 37 23 23 16 18 20 21 23 41 49 59 62 62 58 54
43 19 7 8 8 6 5 6 7 7 8 11 14 17 17 18 16 12 9 16 10 8 25 23 26 23 22 10 16 21 26 38 34 23 25 22 24 33 44 62 60 67 67 64 62
10 8 8 8 6 6 6 6 7 7 8 10 23 10 21 11 11 7 14 10 9 10 9 36 21 21 14 17 26 30 28 26 32 45 37 17 15 14 49 67 71 64 54 59 58
9 8 7 6 6 7 8 8 8 8 8 10 11 9 7 6 6 7 18 13 12 10 11 13 39 26 36 21 20 20 20 23 28 32 32 35 22 35 32 36 34 48 55 59 59
7 6 7 6 7 8 8 7 7 7 8 7 6 6 6 6 7 13 26 10 11 12 44 15 30 37 27 28 35 51 51 38 32 28 33 44 48 42 52 61 67 65 58 47 60
5 6 7 7 8 8 8 6 6 6 6 6 5 6 7 8 16 13 12 11 11 12 18 34 40 35 14 33 55 51 55 56 53 50 47 53 43 44 48 48 50 44 38 43 67
6 7 8 8 8 8 7 6 6 6 6 5 6 7 7 7 7 19 20 14 12 19 20 33 63 51 31 26 33 37 36 39 43 46 44 41 36 32 33 35 35 38 44 57 70
7 8 9 9 9 8 7 7 6 6 6 6 7 7 8 10 10 14 10 15 14 13 16 27 51 46 46 48 52 54 56 60 55 50 51 48 44 40 40 43 51 57 62 70 64
8 9 10 10 10 9 9 8 8 7 7 7 8 7 8 9 11 30 14 14 20 25 35 75 71 69 66 58 56 53 52 53 54 53 51 52 51 49 50 52 53 58 72 67 63
9 10 11 11 11 10 9 8 8 7 8 7 7 8 6 8 10 9 13 17 24 30 45 73 80 75 65 58 61 59 47 46 45 46 47 50 54 55 60 52 56 87 75 77 69

GFSSW_700_rhum_279.txt.gz
RH
21 20 19 18 16 15 14 13 12 11 11 10 10 9 8 8 8 9 28 12 12 12 13 13 18 16 12 11 12 12 13 10 14 20 22 26 27 26 27 25 24 26 27 36 40
22 20 18 18 17 16 15 13 13 12 11 11 10 10 10 9 10 31 10 8 8 8 10 17 28 16 26 26 24 20 17 13 18 20 19 22 24 24 23 23 22 24 28 29 30
22 21 19 18 17 16 16 15 14 13 13 12 12 12 11 11 13 28 11 9 9 9 9 12 13 16 27 26 25 22 18 19 22 21 25 23 20 18 19 20 21 26 29 28 27
20 19 19 18 17 16 16 15 15 14 12 11 10 9 9 10 22 20 12 11 11 11 11 14 26 25 23 22 26 26 20 23 23 25 26 23 21 20 17 17 23 28 29 26 24
17 16 16 16 15 14 13 12 11 9 6 5 4 4 4 18 21 5 6 6 6 7 10 12 20 27 22 23 22 21 22 24 23 22 23 21 20 18 20 23 23 24 23 22 23
16 14 13 12 11 10 9 7 6 5 5 6 8 9 10 20 14 9 9 9 9 8 7 8 23 21 10 26 25 24 27 24 21 18 16 25 19 16 13 25 23 22 20 20 21
12 12 11 10 8 7 6 5 5 6 6 10 20 23 25 24 19 15 11 14 15 16 16 15 12 11 22 24 25 27 22 18 14 14 20 22 19 13 17 21 24 22 20 19 21
10 9 8 7 7 6 6 6 6 6 10 12 16 22 24 21 22 20 23 25 21 23 24 25 25 22 23 25 23 21 18 16 13 16 18 20 18 17 19 22 25 24 22 21 20
8 7 6 6 7 8 7 7 8 14 20 25 24 24 28 18 19 22 23 25 28 27 27 27 26 30 29 27 24 20 18 16 17 18 21 23 25 26 23 22 24 26 25 23 23
7 7 7 8 10 9 10 13 23 25 27 29 28 25 28 26 23 22 23 23 26 26 30 35 35 32 29 25 24 29 28 26 26 26 27 29 31 31 28 27 27 28 28 30 33
8 8 7 8 9 11 17 27 30 32 30 30 31 31 28 22 20 20 17 11 19 34 33 33 34 26 28 34 34 32 30 28 28 27 29 30 29 25 23 23 23 26 32 41 50
11 10 10 9 11 13 20 26 33 38 35 33 33 30 26 15 15 25 11 15 26 26 33 30 26 32 34 32 30 29 26 23 23 24 27 24 22 21 20 19 31 38 45 51 56
15 18 19 20 26 24 28 29 31 33 32 30 27 17 14 11 11 14 9 23 26 19 18 22 23 29 31 24 24 23 24 24 27 28 24 21 17 15 14 24 42 51 54 51 59
18 18 24 43 35 32 37 36 31 26 23 28 24 20 16 13 34 17 17 20 40 35 30 23 28 30 31 28 29 30 24 34 30 25 21 19 18 14 13 31 46 50 55 54 46
26 42 45 37 41 40 32 25 17 8 35 26 25 16 14 24 31 27 20 40 38 33 29 33 40 32 28 29 37 28 31 29 28 26 23 19 18 15 15 16 44 46 49 55 56
41 44 46 46 36 29 18 8 7 16 26 25 15 22 28 28 28 35 29 18 16 30 32 29 28 39 36 32 34 42 32 20 18 16 16 16 21 23 18 33 46 43 48 53 54
68 62 54 43 28 21 8 7 18 26 22 23 25 18 28 27 27 37 28 26 22 19 17 19 19 42 23 29 25 27 17 16 12 10 10 8 10 11 12 28 39 43 50 58 58
64 59 57 48 28 12 7 6 32 25 25 20 10 13 22 19 21 23 27 20 26 18 15 16 18 39 38 25 20 18 16 22 23 19 17 14 12 10 25 25 34 54 60 62 61
83 67 61 41 18 8 7 32 26 26 24 22 11 20 22 22 19 19 26 24 22 9 21 18 14 26 19 21 23 13 15 19 24 18 20 17 15 13 28 48 59 59 63 65 61
83 74 65 31 10 8 6 36 36 8 7 7 20 16 18 20 16 16 20 19 22 5 4 26 22 18 18 22 22 24 21 20 19 29 28 15 14 12 27 41 56 65 64 56 51
78 68 52 15 8 6 16 40 14 6 7 9 26 24 20 22 18 19 22 14 6 30 6 30 30 24 28 23 19 17 17 19 19 19 24 29 23 20 32 43 48 52 52 52 50
80 17 20 7 6 19 38 32 10 7 8 8 10 26 26 25 25 23 26 40 6 6 36 42 29 31 27 23 21 26 38 41 37 33 31 33 38 32 32 38 38 41 41 37 37
6 17 8 6 24 25 15 10 8 8 10 10 10 8 8 33 27 29 42 5 6 8 46 45 30 26 13 25 32 37 29 28 31 33 32 38 35 27 29 31 33 35 37 39 41
10 10 7 7 13 35 18 8 8 7 8 7 6 5 6 25 12 40 44 10 6 10 9 10 47 44 34 32 35 33 32 32 34 36 34 34 33 32 32 33 34 38 43 43 49
5 18 8 9 8 11 26 25 10 7 7 6 6 7 22 41 40 45 47 59 27 12 13 52 56 46 41 39 39 38 36 34 34 34 35 34 33 32 31 35 50 57 52 62 79
5 7 7 9 12 10 10 11 18 17 7 10 21 29 21 40 41 37 51 53 50 61 66 66 64 63 56 39 34 35 36 36 37 35 32 30 29 32 35 37 44 51 49 67 75
6 7 9 9 10 20 28 22 27 11 9 9 19 37 14 49 16 8 9 14 19 29 65 69 68 62 48 46 51 50 44 36 35 36 37 37 38 39 38 38 41 45 46 68 76

GFSSW_700_rhum_285.txt.gz
RH
22 21 18 17 16 16 15 14 13 12 11 10 10 9 9 9 8 10 7 8 7 6 7 9 9 10 24 23 22 19 17 17 19 19 20 19 19 18 19 20 17 21 24 32 29
20 20 19 18 17 16 15 14 13 12 11 10 10 9 10 10 8 10 8 8 8 7 8 7 8 11 24 25 24 23 22 22 19 19 20 20 20 20 18 18 17 17 24 28 28
20 19 18 18 17 16 15 14 13 12 12 10 9 8 8 16 23 21 17 9 6 6 6 6 6 12 20 23 20 22 22 21 19 19 20 20 16 14 20 17 17 18 18 19 21
21 20 18 17 17 16 16 15 14 12 10 8 6 5 5 9 18 17 8 5 7 7 6 6 6 7 10 17 20 21 21 20 20 21 20 17 15 18 19 14 20 20 19 19 18
19 19 18 16 15 14 13 12 10 8 6 4 4 4 4 8 14 15 10 9 8 8 7 7 7 7 9 10 11 19 18 17 20 16 13 14 17 19 17 15 17 17 19 19 19
17 16 16 14 12 11 10 8 6 5 4 4 5 7 10 8 14 12 12 12 13 11 12 15 14 12 10 12 12 13 17 14 15 16 16 17 18 18 16 18 20 23 22 22 22
15 14 12 11 10 8 6 5 4 4 4 5 6 8 7 10 11 10 10 10 10 12 13 17 19 20 21 20 21 19 22 23 21 24 20 17 17 18 22 23 21 21 24 26 24
12 11 10 8 7 6 5 4 4 4 5 6 7 10 8 10 10 12 15 16 17 17 16 19 19 19 22 26 26 26 28 28 27 25 22 23 24 24 24 25 26 26 26 26 26
10 8 8 6 5 5 4 4 4 4 5 6 8 9 11 12 12 20 17 16 22 19 17 18 23 28 30 30 32 30 30 29 27 24 20 20 20 21 23 24 24 23 20 23 30
9 8 7 6 5 5 4 4 5 5 6 8 10 15 23 25 19 24 25 23 17 16 20 29 32 33 33 34 31 30 27 26 21 20 19 20 19 19 15 16 18 20 21 24 27
8 6 6 5 5 5 5 5 6 10 10 11 15 16 17 16 15 24 23 22 16 22 28 25 31 33 31 31 30 28 22 19 20 21 21 22 22 16 16 16 17 23 29 32 33
8 6 6 6 5 5 5 5 6 9 9 10 11 15 15 15 24 26 23 21 15 19 18 24 24 26 25 25 22 19 21 23 22 21 20 11 18 16 14 18 25 31 33 34 35
7 6 6 6 6 6 6 6 8 11 18 20 21 22 22 24 25 26 20 11 27 22 28 18 23 21 22 20 22 21 28 26 24 18 10 18 14 12 13 20 25 32 34 36 37
7 7 7 7 10 10 13 15 22 23 23 29 29 26 20 18 33 26 13 18 44 36 29 20 24 22 22 23 25 26 20 17 24 30 26 13 20 14 27 31 30 33 38 42 42
8 8 8 8 14 17 23 30 28 20 43 31 26 19 16 17 30 26 12 11 33 31 20 27 29 24 21 24 16 22 24 27 24 19 13 12 15 11 17 17 28 43 46 49 51
8 9 9 11 12 16 32 34 23 18 33 28 24 17 22 25 18 17 21 10 9 12 15 23 26 24 22 22 20 16 21 14 10 13 19 16 13 10 28 30 44 45 49 56 61
11 12 15 19 31 29 36 28 15 28 28 24 23 21 26 26 22 24 26 20 18 10 15 14 22 27 27 21 8 6 12 18 22 24 22 10 13 36 28 37 50 55 57 61 64
13 15 22 25 44 44 37 18 20 29 28 23 17 14 22 22 21 18 20 24 24 12 13 18 28 32 27 14 9 16 16 21 28 34 27 17 17 38 36 47 42 36 39 43 40
16 22 27 50 56 47 41 18 18 27 24 22 18 15 20 20 17 16 16 24 21 6 16 15 18 19 16 14 12 16 18 22 20 18 23 19 18 15 25 27 23 25 26 27 28
18 22 40 69 65 50 40 26 23 23 24 23 16 17 17 20 15 14 22 23 18 7 4 21 11 11 18 10 20 21 19 19 18 31 39 21 23 23 23 17 28 29 28 28 28
24 43 59 71 68 54 41 39 31 33 26 26 14 22 18 20 17 17 18 22 19 10 4 13 21 14 12 17 23 22 21 22 25 26 49 63 36 25 14 29 31 29 29 29 32
71 73 64 72 66 57 50 49 33 34 29 21 12 19 20 20 17 16 20 22 20 13 8 10 16 16 14 19 25 23 30 35 33 34 32 32 32 23 30 28 29 30 32 31 35
83 89 67 71 67 61 46 28 28 41 33 17 11 9 11 14 19 23 27 20 21 7 7 6 19 15 17 24 26 34 33 30 29 30 28 43 34 26 31 31 34 36 37 36 37
99 94 88 82 70 61 37 27 27 31 30 25 27 15 11 15 25 38 33 23 20 8 5 5 6 13 35 30 40 44 39 30 36 34 32 33 31 32 35 38 41 40 40 41 49
77 74 75 72 65 72 43 38 33 30 29 26 21 16 10 18 34 30 30 39 36 27 17 16 11 30 41 26 32 36 40 38 35 36 39 36 38 40 45 51 55 52 47 48 62
74 74 73 69 71 52 46 52 44 38 24 14 14 17 33 36 36 38 40 43 42 36 28 28 38 48 35 39 51 41 32 45 41 41 41 44 48 55 56 58 60 70 68 78 80
76 80 74 78 42 21 50 49 44 46 37 21 21 44 35 31 36 38 36 34 27 18 39 23 34 46 51 41 31 45 50 46 48 51 54 60 70 65 54 64 70 59 42 69 78

GFSSW_700_rhum_291.txt.gz
RH
15 14 15 15 14 13 13 12 10 9 8 8 8 7 7 7 8 8 7 6 6 6 6 6 8 12 10 9 10 16 23 24 23 23 23 21 20 20 17 16 18 17 24 28 29
17 14 14 14 13 13 13 12 11 10 9 8 8 8 7 7 7 8 7 6 5 5 5 5 5 6 14 12 12 18 23 24 22 21 21 21 23 22 14 14 18 17 22 24 22
21 17 15 15 15 14 13 11 10 9 8 8 8 7 6 11 11 7 6 6 7 7 7 7 7 7 10 13 18 19 22 22 22 22 18 16 17 20 15 19 18 21 23 22 21
22 21 19 17 15 14 12 11 10 9 8 7 6 6 6 10 15 12 9 8 8 8 7 7 6 7 6 8 20 20 19 19 19 16 23 17 12 15 22 26 21 23 23 23 22
22 21 19 17 15 13 12 10 9 8 6 6 5 4 5 6 11 11 10 9 8 7 7 7 7 8 10 10 11 11 9 11 20 24 23 19 17 20 26 26 27 27 25 24 26
22 20 18 16 15 13 11 9 7 6 5 5 5 5 6 7 11 8 8 8 8 8 10 10 11 12 12 16 18 21 19 23 27 25 24 20 19 21 24 24 24 25 26 25 26
21 19 17 16 14 11 9 7 6 5 5 5 6 6 6 8 8 8 8 10 10 9 13 15 16 16 21 25 31 32 26 29 28 27 26 23 22 20 22 21 21 18 20 23 27
19 18 16 14 12 9 7 6 5 5 5 6 6 6 7 8 9 9 10 12 9 14 20 19 22 29 31 30 32 32 29 29 27 27 24 21 17 21 17 15 16 17 19 23 26
19 17 15 12 9 7 6 5 5 5 5 5 6 6 8 10 11 10 8 8 10 18 16 24 29 32 31 31 32 31 29 27 24 21 18 18 14 14 16 13 17 18 22 25 27
19 16 13 10 7 6 5 5 5 5 5 5 7 9 11 12 8 8 11 12 15 19 27 28 30 33 32 32 27 25 24 23 21 18 13 11 14 15 15 15 18 23 28 35 40
19 15 11 8 6 5 5 5 6 6 6 7 7 7 8 11 14 16 16 18 22 19 27 26 28 31 29 28 25 21 20 19 22 14 11 17 28 41 42 31 35 41 46 49 52
18 13 10 7 6 5 5 5 6 8 10 11 11 14 18 19 20 20 20 22 20 15 16 22 27 26 24 22 19 16 12 13 16 13 15 32 55 53 50 50 53 56 56 57 57
15 12 8 6 5 5 5 6 9 11 14 17 19 21 20 19 18 21 17 15 16 22 25 22 27 30 27 24 17 6 8 8 16 10 16 47 51 57 57 57 57 56 56 57 57
14 10 7 6 6 6 7 10 13 15 19 22 23 22 20 16 23 18 13 18 27 28 31 28 34 32 24 15 12 10 7 6 6 16 17 12 45 54 58 56 56 57 58 59 59
12 9 7 6 7 8 14 15 17 24 22 24 26 18 12 12 12 14 7 13 32 35 24 26 30 27 25 23 17 14 4 4 5 10 15 12 28 55 56 54 52 48 46 34 29
11 9 7 7 8 13 16 18 24 23 22 26 25 24 22 19 11 9 10 7 8 11 12 15 24 26 29 29 24 9 4 4 9 14 19 20 15 52 49 36 33 30 28 24 20
11 10 7 7 8 12 16 23 25 26 28 26 19 13 15 17 15 13 9 8 9 12 16 22 21 25 31 29 16 5 5 8 13 22 23 22 26 35 35 33 32 30 29 24 19
13 12 24 16 13 13 14 28 30 25 28 23 19 16 22 20 16 16 13 12 13 17 13 25 28 30 24 18 13 10 12 14 12 26 22 13 40 40 37 37 34 30 26 23 22
16 13 10 12 12 13 22 31 31 30 27 26 26 24 18 14 18 18 10 11 13 14 5 16 21 19 20 17 12 14 17 17 20 24 29 22 55 50 38 38 34 28 24 21 28
21 16 13 12 11 16 28 34 32 30 29 26 24 21 16 16 18 17 16 14 13 11 6 6 5 6 10 13 13 16 18 20 18 26 32 25 27 32 32 31 30 27 22 23 36
23 26 35 15 14 19 34 37 35 32 29 25 23 21 19 17 19 17 16 16 14 15 9 5 5 8 10 12 17 20 22 23 23 27 38 59 36 35 36 32 30 26 29 34 36
22 16 19 13 17 21 43 41 38 37 38 37 34 28 22 20 19 18 17 17 16 12 14 12 5 6 14 18 16 20 25 28 28 32 37 38 36 32 34 31 28 34 35 35 40
21 18 15 14 17 26 45 48 43 41 41 44 43 40 31 23 20 20 17 16 18 18 17 11 6 6 28 30 26 27 30 35 34 31 33 36 29 28 30 28 31 34 37 40 47
21 19 18 19 24 29 35 41 49 45 49 49 47 44 35 19 20 20 15 16 17 18 16 13 8 5 5 14 23 31 35 33 25 36 29 29 26 30 33 32 36 41 41 43 22
23 24 22 28 30 35 36 48 57 58 55 51 48 43 28 16 11 13 17 18 18 16 17 21 17 12 9 9 10 12 12 9 15 30 44 35 44 42 41 42 50 48 34 18 28
33 35 30 31 36 38 41 52 51 52 53 50 48 43 34 22 14 14 18 17 16 21 23 18 14 12 8 9 8 9 10 16 26 34 41 47 47 47 52 54 46 28 20 32 49
36 35 32 34 40 41 36 36 40 48 52 54 50 42 35 26 17 17 24 28 28 27 28 27 16 14 15 9 14 17 9 14 24 40 43 46 47 50 53 45 28 22 36 45 53